Location: Newark
(12.4436°N, 0.6167°W)
Time: 14:11:05
(UTC+00:00)

Transit 2A - Pass Details

Date: 10 December 2019
Orbit: 601 x 957 km, 66.7° (Epoch: 17 January)

Event Time Altitude Azimuth Distance (km) Brightness Sun altitude
Rises 17:22:00 0° 330° (NNW) 2,984 9.1 2.6°
Reaches altitude 10° 17:24:15 10° 325° (NW) 2,116 8.5 2.1°
Maximum altitude 17:28:53 50° 250° (WSW) 924 7.2 1.1°
Drops below altitude 10° 17:34:01 10° 175° (S) 2,337 8.8 0.0°
Sets 17:36:38 0° 170° (S) 3,328 9.5 -0.6°
